Location: Leiter
(44.7178°N, 106.2687°W)
Time: 10:20:51
(UTC+00:00)

ESTCUBE 1 - Pass Details

Date: 03 July 2022
Orbit: 645 x 657 km, 97.9° (Epoch: 15 August)

Event Time Altitude Azimuth Distance (km) Brightness Sun altitude
Exits shadow 04:33:17 20° 126° (SE) 1,502 ? -13.5°
Maximum altitude 04:35:52 38° 69° (ENE) 993 ? -13.8°
Drops below altitude 10° 04:40:01 10° 2° (N) 2,060 ? -14.2°
Sets 04:42:21 0° 355° (N) 2,977 ? -14.5°
